Wright-Patt AFB, OH

7:33 PM EST on January 16, 2018 (GMT -0500)
Wright-Patterson Air Force Base

Weather History for KFFO - April, 2013

Change the Weather History Date:

Tuesday, April 9, 2013

  Actual Average Record
Temperature  
Mean Temperature 66 °F -  
Max Temperature 80 °F 60 °F 86 °F (2001)
Min Temperature 52 °F 38 °F 17 °F (1997)
Cooling Degree Days 1    
Growing Degree Days 16 (Base 50)    
Moisture  
Dew Point 54 °F    
Average Humidity 69    
Maximum Humidity 94    
Minimum Humidity 44    
Precipitation  
Precipitation 0.00 in - - ()
Sea Level Pressure  
Sea Level Pressure 29.96 in    
Wind  
Wind Speed 6 mph (SSW)    
Max Wind Speed 26 mph    
Max Gust Speed 34 mph    
Visibility 10 miles    
Events      
Averages and records for this station are not official NWS values.
T = Trace of Precipitation, MM = Missing Value Source: NWS Daily Summary

Daily Weather History Graph

Daily Weather History Graph

Search for Another Location

Airport or City:

Trip Planner

Search our weather history database for the weather conditions in past years. The results will help you decide how hot, cold, wet, or windy it might be!

Date:

Astronomy

Apr. 09, 2013 Rise Set
Actual Time 7:07 AM EDT 8:08 PM EDT
Civil Twilight 6:39 AM EDT 8:36 PM EDT
Nautical Twilight 6:06 AM EDT 9:09 PM EDT
Astronomical Twilight 5:32 AM EDT 9:43 PM EDT
Moon 6:29 AM EDT (4/9) 7:43 PM EDT (4/9)
Length of Visible Light 13h 56m
Length of Day
13h 01m
Waning Crescent, 1% of the Moon is Illuminated
Apr 9
Waning Crescent
Apr 10
New
Apr 18
First Quarter
Apr 25
Full
May 2
Last Quarter

Hourly Weather History & Observations

Time (EDT) Temp. Heat Index Dew Point Humidity Pressure Visibility Wind Dir Wind Speed Gust Speed Precip Events Conditions
12:55 AM 59.7 °F - 52.7 °F 78% 30.00 in 10.0 mi Calm Calm - N/A   Scattered Clouds
1:55 AM 54.9 °F - 51.1 °F 87% 30.01 in 10.0 mi SSE 3.5 mph - N/A   Partly Cloudy
2:55 AM 55.4 °F - 51.3 °F 86% 30.01 in 10.0 mi Calm Calm - N/A   Scattered Clouds
3:55 AM 53.4 °F - 50.7 °F 91% 30.02 in 10.0 mi North 3.5 mph - N/A   Clear
4:55 AM 54.5 °F - 51.6 °F 90% 30.03 in 10.0 mi Calm Calm - N/A   Mostly Cloudy
5:55 AM 52.0 °F - 50.2 °F 94% 30.03 in 10.0 mi South 3.5 mph - N/A   Mostly Cloudy
6:55 AM 52.9 °F - 50.5 °F 92% 30.04 in 10.0 mi Calm Calm - N/A   Mostly Cloudy
7:55 AM 54.0 °F - 51.4 °F 91% 30.05 in 10.0 mi Calm Calm - N/A   Mostly Cloudy
8:55 AM 57.7 °F - 53.2 °F 85% 30.06 in 10.0 mi Calm Calm - N/A   Mostly Cloudy
11:55 AM 73.9 °F - 57.4 °F 56% 30.02 in 10.0 mi South 13.8 mph - N/A   Scattered Clouds
12:55 PM 77.5 °F - 58.8 °F 52% 29.99 in 10.0 mi SSW 19.6 mph 25.3 mph N/A   Scattered Clouds
1:55 PM 78.4 °F - 57.9 °F 49% 29.96 in 10.0 mi South 19.6 mph 25.3 mph N/A   Mostly Cloudy
2:55 PM 79.7 °F - 56.7 °F 45% 29.94 in 10.0 mi South 26.5 mph 34.5 mph N/A   Mostly Cloudy
3:55 PM 80.2 °F 80.4 °F 56.5 °F 44% 29.91 in 10.0 mi South 20.7 mph 29.9 mph N/A   Mostly Cloudy
6:55 PM 77.9 °F - 55.4 °F 46% 29.93 in 10.0 mi SW 18.4 mph - N/A   Mostly Cloudy
7:55 PM 74.8 °F - 55.4 °F 51% 29.92 in 10.0 mi SSW 15.0 mph - N/A   Scattered Clouds
8:00 PM 73.4 °F - 55.4 °F 53% 29.51 in 10.0 mi SSW 12.7 mph - N/A   Scattered Clouds
8:55 PM 67.6 °F - 55.0 °F 64% 29.94 in 10.0 mi SSW 6.9 mph - N/A   Scattered Clouds
9:55 PM 66.6 °F - 54.9 °F 66% 29.94 in 10.0 mi SSW 5.8 mph - N/A   Clear
10:55 PM 64.6 °F - 55.0 °F 71% 29.95 in 10.0 mi SSW 8.1 mph - N/A   Partly Cloudy
11:55 PM 68.4 °F - 57.4 °F 68% 29.95 in 10.0 mi SSW 11.5 mph - N/A   Scattered Clouds